WetterOnline ( http://www.wetteronline.de )

Wetter aktuell Bonn

Aktuelles Wetter: Roleber (162m)

6-stündlich | Neueste Meldungen
Ortszeit Temperatur Wetter
Di, 16.10. 8:00 11.2° C bedeckt
Di, 16.10. 2:00 11.6° C wolkenlos
Mo, 15.10. 20:00 18.2° C bedeckt
Mo, 15.10. 14:00 24.7° C wolkenlos
Mo, 15.10. 8:00 12.8° C bedeckt
Mo, 15.10. 2:00 15.4° C bedeckt
So, 14.10. 20:00 18.1° C wolkenlos
So, 14.10. 14:00 23.8° C wolkenlos
Ortszeit Temperatur Wetter
Di, 16.10. 10:30 17.4° C leicht bewölkt
Di, 16.10. 10:20 17.4° C leicht bewölkt
Di, 16.10. 10:10 16.5° C fast wolkenlos
Di, 16.10. 10:00 15.6° C wolkig
Di, 16.10. 9:50 15.6° C wolkig
Di, 16.10. 9:40 15.7° C bewölkt
Di, 16.10. 9:30 15.2° C bedeckt
Di, 16.10. 9:00 12.8° C bedeckt
Di, 16.10. 8:30 12.0° C bedeckt
Di, 16.10. 8:00 11.2° C bedeckt
Di, 16.10. 7:30 11.5° C bedeckt
Ortszeit Relative Feuchte Sichtweite
Di, 16.10. 8:00 86% 16 km
Di, 16.10. 2:00 83% 26 km
Mo, 15.10. 20:00 58% 40 km
Mo, 15.10. 14:00 35% 35 km
Mo, 15.10. 8:00 80% 21 km
Mo, 15.10. 2:00 73% 28 km
So, 14.10. 20:00 61% 40 km
So, 14.10. 14:00 48% 22 km
Ortszeit Relative Feuchte Sichtweite
Di, 16.10. 10:30 62% 19 km
Di, 16.10. 10:20 62% -
Di, 16.10. 10:10 65% -
Di, 16.10. 10:00 68% 16 km
Di, 16.10. 9:50 68% -
Di, 16.10. 9:40 68% -
Di, 16.10. 9:30 69% 16 km
Di, 16.10. 9:00 79% 15 km
Di, 16.10. 8:30 81% 16 km
Di, 16.10. 8:00 86% 16 km
Di, 16.10. 7:30 83% 17 km
Ortszeit Niederschlagsmenge Niederschlagsart
Di, 16.10. 8:00 0.0 l/m2 in 12 Std. -
Di, 16.10. 2:00 0.0 l/m2 in 6 Std. -
Mo, 15.10. 20:00 0.0 l/m2 in 12 Std. -
Mo, 15.10. 14:00 0.0 l/m2 in 6 Std. -
Mo, 15.10. 8:00 0.0 l/m2 in 12 Std. -
Mo, 15.10. 2:00 0.0 l/m2 in 6 Std. -
So, 14.10. 20:00 0.0 l/m2 in 12 Std. -
So, 14.10. 14:00 0.0 l/m2 in 6 Std. -
Ortszeit Niederschlagsmenge Niederschlagsart
Di, 16.10. 10:30 0.0 l/m2 in 1 Std. -
Di, 16.10. 10:20 keine Meldung -
Di, 16.10. 10:10 keine Meldung -
Di, 16.10. 10:00 0.0 l/m2 in 1 Std. -
Di, 16.10. 9:50 keine Meldung -
Di, 16.10. 9:40 keine Meldung -
Di, 16.10. 9:30 0.0 l/m2 in 1 Std. -
Di, 16.10. 9:00 0.0 l/m2 in 1 Std. -
Di, 16.10. 8:30 0.0 l/m2 in 1 Std. -
Di, 16.10. 8:00 0.0 l/m2 in 1 Std. -
Di, 16.10. 7:30 0.0 l/m2 in 1 Std. -
Ortszeit Stärke Spitze Richtung
km/h Bft. km/h Grad Sektor
Di, 16.10. 8:00 0 0 11 - -
Di, 16.10. 2:00 0 0 7 - -
Mo, 15.10. 20:00 4 1 18 140° SO
Mo, 15.10. 14:00 7 2 18 170° S
Mo, 15.10. 8:00 7 2 22 140° SO
Mo, 15.10. 2:00 7 2 18 80° O
So, 14.10. 20:00 11 2 43 120° SO
So, 14.10. 14:00 20 4 31 150° SO
Ortszeit Stärke Spitze Richtung
km/h Bft. km/h Grad Sektor
Di, 16.10. 10:30 4 1 7 180° S
Di, 16.10. 10:20 4 1 - 180° S
Di, 16.10. 10:10 4 1 - 210° SW
Di, 16.10. 10:00 2 1 6 140° SO
Di, 16.10. 9:50 2 1 - 140° SO
Di, 16.10. 9:40 4 1 - 140° SO
Di, 16.10. 9:30 4 1 7 150° SO
Di, 16.10. 9:00 4 1 7 110° O
Di, 16.10. 8:30 4 1 4 50° NO
Di, 16.10. 8:00 0 0 4 - -
Di, 16.10. 7:30 4 1 4 210° SW
Ortszeit Untergrenze Bedeckung Gattung
total tief tief mittel hoch
Di, 16.10. 8:00 4200 m 8/8 8/8 - - -
Di, 16.10. 2:00 - 0/8 0/8 - - -
Mo, 15.10. 20:00 4200 m 8/8 8/8 - - -
Mo, 15.10. 14:00 - 0/8 0/8 - - -
Mo, 15.10. 8:00 3600 m 8/8 8/8 - - -
Mo, 15.10. 2:00 2700 m 8/8 8/8 - - -
So, 14.10. 20:00 - 0/8 0/8 - - -
So, 14.10. 14:00 - 0/8 0/8 - - -
Ortszeit Bedeckungsgrad in Achtel und Wolkenuntergrenze
Di, 16.10. 10:30 2(6300m) 4(7200m)
Di, 16.10. 10:20 2(6300m) 4(7200m)
Di, 16.10. 10:10 1(4200m) 1(6900m)
Di, 16.10. 10:00 5(4200m) 5(6300m)
Di, 16.10. 9:50 5(4200m) 5(6300m)
Di, 16.10. 9:40 7(4200m) 7(6300m)
Di, 16.10. 9:30 8(4200m) 8(6300m)
Di, 16.10. 9:00 8(4200m)
Di, 16.10. 8:30 8(4200m)
Di, 16.10. 8:00 8(4200m)
Di, 16.10. 7:30 8(4200m)
Ortszeit Luftdruck NN (hPa) Tendenz (hPa in 3 Std.)
Di, 16.10. 8:00 1019 + 0,6
Di, 16.10. 2:00 1017 + 0,7
Mo, 15.10. 20:00 1015 + 1,3
Mo, 15.10. 14:00 1013 - 0,2
Mo, 15.10. 8:00 1013 + 1,0
Mo, 15.10. 2:00 1011 + 0,8
So, 14.10. 20:00 1010 + 0,5
So, 14.10. 14:00 1010 - 1,1
Ortszeit Luftdruck NN (hPa) Tendenz (hPa in 3 Std.)
Di, 16.10. 10:30 1019 + 1,0
Di, 16.10. 10:20 1019 keine Meldung
Di, 16.10. 10:10 1019 keine Meldung
Di, 16.10. 10:00 1019 + 1,2
Di, 16.10. 9:50 1019 keine Meldung
Di, 16.10. 9:40 1019 keine Meldung
Di, 16.10. 9:30 1019 + 1,2
Di, 16.10. 9:00 1019 + 1,2
Di, 16.10. 8:30 1019 + 1,0
Di, 16.10. 8:00 1019 + 0,6
Di, 16.10. 7:30 1018 + 0,5
Ortszeit Schneehöhe (cm)
Di, 16.10. 8:00 0
Di, 16.10. 2:00 0
Mo, 15.10. 20:00 0
Mo, 15.10. 14:00 0
Mo, 15.10. 8:00 0
Mo, 15.10. 2:00 0
So, 14.10. 20:00 0
So, 14.10. 14:00 0
Ortszeit Schneehöhe (cm)
Di, 16.10. 10:30 0
Di, 16.10. 10:20 0
Di, 16.10. 10:10 0
Di, 16.10. 10:00 0
Di, 16.10. 9:50 0
Di, 16.10. 9:40 0
Di, 16.10. 9:30 0
Di, 16.10. 9:00 0
Di, 16.10. 8:30 0
Di, 16.10. 8:00 0
Di, 16.10. 7:30 0
Link zu dieser Seite / Seite empfehlen

Das Wetter in ...